Regional Weather Roundup
Issued by NWS

Home | Current Version | Previous Version | Text Only | Print | Product List | Glossary On
Versions: 1 2 3 4 5 6 7 8 9 10 11 12 13 14 15 16 17 18 19 20 21 22 23 24 25 26 27 28
000
ASUS45 KSLC 261610
RWRUT

UTAH REGIONAL WEATHER ROUNDUP
NATIONAL WEATHER SERVICE SALT LAKE CITY UT
1000 AM MDT TUE JUL 26 2016

UTZ001>011-023>025-261700-

NORTHERN UTAH

CITY           SKY/WX    TMP DP  RH WIND       PRES   REMARKS
BRIGHAM CITY     N/A     80  38  22 CALM      30.09S
HILL AFB       MOSUNNY   85  42  22 E12       30.12R
LOGAN          SUNNY     74  39  28 W3        30.12S
OGDEN          SUNNY     84  43  23 N5        30.09R
PROVO AIRPORT  NOT AVBL
SALT LAKE CITY MOSUNNY   89  41  18 S8        30.07S
VERNAL         SUNNY     75  41  29 CALM      30.20F
WENDOVER       SUNNY     82  32  16 S3        30.09S
HEBER CITY     SUNNY     73  41  31 CALM      30.20S

$$

UTZ012>022-026-027-261700-

SOUTHERN/CENTRAL UTAH

CITY           SKY/WX    TMP DP  RH WIND       PRES   REMARKS
BLANDING       CLOUDY    78  46  32 SW6       30.35S
BRYCE CANYON   SUNNY     77  42  28 SW5       30.40F
CEDAR CITY     SUNNY     85  46  25 SW9       30.22F
DELTA          SUNNY     84  41  21 S8G17     30.13F
MILFORD        SUNNY     84  46  26 S16       30.17S
MOAB/CYNLANDS  SUNNY     89  46  22 SE8       30.13S
PRICE          SUNNY     80  40  23 SE3       30.24S
ST GEORGE      SUNNY     91  46  21 CALM      30.06S

$$

REGIONAL REPORTS     COLORADO/ARIZONA

CITY           SKY/WX    TMP DP  RH WIND       PRES   REMARKS
CRAIG, CO      CLOUDY    77  43  29 NE3       30.28F
GRAND JUNCTION MOSUNNY   82  43  25 SE10      30.18S
RIFLE          CLOUDY    75  45  34 N3        30.25F
MONTROSE       CLOUDY    76  46  34 NE5       30.28S
CORTEZ         MOSUNNY   77  49  37 W5        30.28S
PAGE, AZ       MOSUNNY   86  45  23 NW5       30.15S
GRAND CANYON   CLOUDY    79  45  29 SE7       30.35R
KINGMAN        MOSUNNY   91  48  22 CALM      30.07S
FLAGSTAFF      PTSUNNY   65  58  78 CALM      30.38S

$$

REGIONAL REPORTS    NEVADA/IDAHO/WYOMING

CITY           SKY/WX    TMP DP  RH WIND       PRES   REMARKS
LAS VEGAS, NV  SUNNY     94  50  22 VRB3      29.91S HX  91
ELY            SUNNY     78  26  14 S7        30.27S
ELKO           SUNNY     71  17  12 MISG      30.19S
POCATELLO, ID  SUNNY     76  45  33 VRB5      30.12F
BURLEY         SUNNY     72  51  47 N5        30.09R
EVANSTON, WY   CLOUDY    76  38  25 SW12      30.32S
ROCK SPRINGS   SUNNY     78  32  18 N5        30.29R
KEMMERER         N/A     77  28  16 S3        30.34S

$$




USA.gov is the U.S. government's official web portal to all federal, state and local government web resources and services.